EST,Max TemperatureF,Mean TemperatureF,Min TemperatureF,Max Dew PointF,MeanDew PointF,Min DewpointF,Max Humidity, Mean Humidity, Min Humidity, Max Sea Level PressureIn, Mean Sea Level PressureIn, Min Sea Level PressureIn, Max VisibilityMiles, Mean VisibilityMiles, Min VisibilityMiles, Max Wind SpeedMPH, Mean Wind SpeedMPH, Max Gust SpeedMPH,PrecipitationIn, CloudCover, Events, WindDirDegrees
2012-11-1,44,38,32,36,31,19,100,84,42,29.88,29.82,29.78,10,7,0,13,7,,0.00,4,,267
2012-11-2,48,42,37,32,24,18,66,50,37,30.01,29.89,29.82,10,10,10,14,8,,0.00,3,,275
2012-11-3,50,41,32,39,29,25,100,67,43,30.12,30.05,29.99,10,10,4,12,3,,0.00,2,,308
2012-11-4,41,38,35,41,38,36,100,98,87,30.05,30.02,29.97,10,6,0,7,3,,0.00,5,,324
2012-11-5,46,37,28,36,29,25,100,76,43,30.08,30.04,30.01,10,10,0,7,2,,0.00,0,,33
2012-11-6,46,39,32,30,28,23,81,67,50,30.01,29.95,29.88,10,10,10,9,4,21,0.00,0,,138
2012-11-7,46,39,32,39,35,28,100,86,71,29.99,29.88,29.83,10,10,10,9,2,,0.00,2,,276
2012-11-8,48,40,32,36,29,19,100,73,34,30.16,30.10,29.99,10,8,0,10,5,,0.00,0,,283
2012-11-9,57,45,33,30,27,25,75,53,29,30.27,30.22,30.16,10,10,10,7,1,,0.00,0,,239
2012-11-10,68,54,41,36,28,16,57,35,28,30.35,30.30,30.24,10,10,10,6,2,,0.00,0,,172
2012-11-11,71,63,55,46,27,12,67,31,16,30.40,30.33,30.29,10,10,10,15,5,24,0.00,0,,162
2012-11-12,62,50,37,55,46,37,100,74,55,30.32,30.24,30.13,10,9,2,22,10,32,0.00,5,,189
2012-11-13,42,35,28,37,26,21,100,72,42,30.40,30.35,30.31,10,9,0,9,5,,0.00,1,,327
2012-11-14,48,36,24,28,25,23,100,72,43,30.37,30.33,30.25,10,10,10,8,4,,0.00,0,,79
2012-11-15,51,40,30,28,26,23,80,59,35,30.28,30.24,30.21,10,10,10,7,2,,0.00,0,,326
2012-11-16,53,42,30,30,26,18,93,62,26,30.38,30.30,30.25,10,10,10,6,2,,0.00,0,,30
2012-11-17,55,44,33,25,21,12,70,46,23,30.46,30.41,30.37,10,10,10,9,4,,0.00,0,,76
2012-11-18,53,43,33,37,30,16,87,64,41,30.45,30.41,30.36,10,10,10,12,5,23,0.00,0,,98
2012-11-19,60,48,37,45,37,30,100,72,45,30.36,30.27,30.18,10,10,10,7,2,,0.00,0,,351
2012-11-20,57,50,42,39,31,21,87,54,29,30.18,30.12,30.07,10,10,10,6,1,,0.00,0,,291
2012-11-21,57,47,37,32,26,25,60,44,29,30.21,30.16,30.10,10,10,10,8,1,,0.00,0,,343
2012-11-22,62,48,35,32,26,21,70,44,25,30.24,30.19,30.13,10,10,10,5,1,,0.00,0,,187
2012-11-23,51,44,35,45,35,28,93,69,46,30.14,30.04,29.96,10,10,10,15,7,22,0.00,3,,258
2012-11-24,35,28,21,28,20,16,80,72,60,30.08,30.04,29.99,10,10,10,15,10,21,0.00,4,,304
2012-11-25,46,32,19,19,14,10,93,54,23,30.07,30.02,29.95,10,10,10,12,3,,0.00,0,,242
2012-11-26,48,42,35,30,19,12,65,39,32,30.18,30.12,30.05,10,10,10,9,5,,0.00,4,,253
2012-11-27,42,38,33,39,36,28,100,96,57,30.23,30.15,30.09,10,7,0,7,3,,0.00,3,,302
2012-11-28,42,36,28,32,25,18,100,72,39,30.35,30.29,30.20,10,10,9,9,3,,0.00,0,,296
2012-11-29,51,38,24,28,20,16,93,53,24,30.38,30.32,30.28,10,10,10,6,1,,0.00,0,,221
2012-11-30,55,47,39,37,29,21,76,54,41,30.34,30.29,30.23,10,10,10,9,3,,0.00,0,,219